Heraklion, Greece

8:11 PM EET on November 18, 2017 (GMT +0200)
Nikos Kazantzakis

Weather History for LGIR - December, 2012

Change the Weather History Date:

Sunday, December 30, 2012

  Actual Average Record
Temperature  
Mean Temperature 54 °F -  
Max Temperature 61 °F 59 °F 68 °F (2000)
Min Temperature 46 °F 48 °F 43 °F (2016)
Degree Days  
Heating Degree Days 12    
Growing Degree Days 4 (Base 50)    
Moisture  
Dew Point 48 °F    
Average Humidity 82    
Maximum Humidity 94    
Minimum Humidity 59    
Precipitation  
Precipitation 0.00 in 0.12 in - ()
Sea Level Pressure  
Sea Level Pressure 30.01 in    
Wind  
Wind Speed 7 mph ()    
Max Wind Speed 12 mph    
Max Gust Speed -    
Visibility 6.5 miles    
Events      
Averages and records for this station are not official NWS values.
T = Trace of Precipitation, MM = Missing Value Source: Averaged Metar Reports

Daily Weather History Graph

Daily Weather History Graph

Search for Another Location

Airport or City:

Trip Planner

Search our weather history database for the weather conditions in past years. The results will help you decide how hot, cold, wet, or windy it might be!

Date:

Astronomy

Dec. 30, 2012 Rise Set
Actual Time 7:27 AM EET 5:16 PM EET
Civil Twilight 6:59 AM EET 5:44 PM EET
Nautical Twilight 6:27 AM EET 6:16 PM EET
Astronomical Twilight 5:56 AM EET 6:47 PM EET
Moon 7:23 PM EET (12/30) 8:30 AM EET (12/30)
Length of Visible Light 10h 45m
Length of Day
9h 48m
Waning Gibbous, 96% of the Moon is Illuminated
Dec 30
Waning Gibbous
Jan 5
Last Quarter
Jan 11
New
Jan 19
First Quarter
Jan 27
Full

Hourly Weather History & Observations

Time (EET) Temp. Windchill Dew Point Humidity Pressure Visibility Wind Dir Wind Speed Gust Speed Precip Events Conditions
12:20 AM 51.8 °F - 50.0 °F 94% 29.98 in 6.2 mi SSW 4.6 mph - N/A   Scattered Clouds
12:50 AM 50.0 °F - 48.2 °F 94% 29.98 in 6.2 mi South 4.6 mph - N/A   Partly Cloudy
1:20 AM 50.0 °F - 48.2 °F 94% 29.98 in 6.2 mi South 6.9 mph - N/A   Partly Cloudy
1:50 AM 48.2 °F - 46.4 °F 93% 29.98 in 6.2 mi South 5.8 mph - N/A   Partly Cloudy
2:20 AM 48.2 °F - 46.4 °F 93% 29.98 in 6.2 mi South 6.9 mph - N/A   Partly Cloudy
3:20 AM 48.2 °F - 46.4 °F 93% 29.98 in 6.2 mi SSW 5.8 mph - N/A   Partly Cloudy
3:50 AM 48.2 °F - 46.4 °F 93% 29.98 in 6.2 mi South 6.9 mph - N/A   Partly Cloudy
4:50 AM 48.2 °F - 42.8 °F 82% 29.98 in 6.2 mi SSW 4.6 mph - N/A   Partly Cloudy
5:20 AM 48.2 °F - 42.8 °F 82% 29.98 in 6.2 mi South 11.5 mph - N/A   Partly Cloudy
5:50 AM 48.2 °F - 44.6 °F 87% 29.98 in 6.2 mi South 10.4 mph - N/A   Partly Cloudy
6:20 AM 48.2 °F - 44.6 °F 87% 29.98 in 6.2 mi South 6.9 mph - N/A   Partly Cloudy
6:50 AM 46.4 °F 42.9 °F 42.8 °F 87% 30.01 in 6.2 mi South 6.9 mph - N/A   Partly Cloudy
7:20 AM 46.4 °F 42.9 °F 42.8 °F 87% 30.01 in 6.2 mi SSW 6.9 mph - N/A   Partly Cloudy
7:50 AM 46.4 °F 42.9 °F 42.8 °F 87% 30.01 in 6.2 mi SSW 6.9 mph - N/A   Partly Cloudy
8:00 AM 47 °F - 43 °F 82% 30.03 in 12 mi SSW 6.9 mph - -   Scattered Clouds
8:20 AM 48.2 °F - 42.8 °F 82% 30.01 in 6.2 mi SSW 8.1 mph - N/A   Partly Cloudy
8:50 AM 50.0 °F - 42.8 °F 76% 30.04 in 6.2 mi South 11.5 mph - N/A   Partly Cloudy
9:20 AM 50.0 °F - 42.8 °F 76% 30.04 in 6.2 mi South 11.5 mph - N/A   Partly Cloudy
9:50 AM 53.6 °F - 48.2 °F 82% 30.04 in 6.2 mi South 8.1 mph - N/A   Partly Cloudy
10:20 AM 55.4 °F - 48.2 °F 77% 30.04 in 6.2 mi SSE 8.1 mph - N/A   Partly Cloudy
10:50 AM 59.0 °F - 48.2 °F 67% 30.04 in 6.2 mi SSE 6.9 mph - N/A   Partly Cloudy
11:20 AM 60.8 °F - 46.4 °F 59% 30.04 in 6.2 mi ESE 4.6 mph - N/A   Partly Cloudy
11:50 AM 60.8 °F - 51.8 °F 72% 30.04 in 6.2 mi Variable 3.5 mph - N/A   Partly Cloudy
12:20 PM 60.8 °F - 51.8 °F 72% 30.04 in 6.2 mi NE 8.1 mph - N/A   Partly Cloudy
12:50 PM 60.8 °F - 51.8 °F 72% 30.01 in 6.2 mi ENE 9.2 mph - N/A   Partly Cloudy
1:20 PM 60.8 °F - 51.8 °F 72% 30.01 in 6.2 mi ENE 10.4 mph - N/A   Partly Cloudy
1:50 PM 60.8 °F - 51.8 °F 72% 30.01 in 6.2 mi ENE 11.5 mph - N/A   Partly Cloudy
2:00 PM 61 °F - 51 °F 62% 30.01 in 12 mi ENE 11.5 mph - -   Scattered Clouds
2:20 PM 60.8 °F - 51.8 °F 72% 30.01 in 6.2 mi ENE 11.5 mph - N/A   Partly Cloudy
2:50 PM 60.8 °F - 53.6 °F 77% 30.01 in 6.2 mi ENE 10.4 mph - N/A   Partly Cloudy
3:20 PM 60.8 °F - 53.6 °F 77% 30.01 in 6.2 mi ENE 10.4 mph - N/A   Partly Cloudy
3:50 PM 60.8 °F - 51.8 °F 72% 29.98 in 6.2 mi ENE 10.4 mph - N/A   Partly Cloudy
4:20 PM 60.8 °F - 51.8 °F 72% 29.98 in 6.2 mi East 8.1 mph - N/A   Partly Cloudy
4:50 PM 59.0 °F - 51.8 °F 77% 30.01 in 6.2 mi East 9.2 mph - N/A   Partly Cloudy
5:20 PM 59.0 °F - 51.8 °F 77% 30.01 in 6.2 mi ESE 4.6 mph - N/A   Partly Cloudy
5:50 PM 55.4 °F - 50.0 °F 82% 30.01 in 6.2 mi SSE 5.8 mph - N/A   Scattered Clouds
6:20 PM 55.4 °F - 50.0 °F 82% 30.01 in 6.2 mi Variable 3.5 mph - N/A   Scattered Clouds
6:50 PM 53.6 °F - 50.0 °F 88% 30.01 in 6.2 mi South 8.1 mph - N/A   Partly Cloudy
7:20 PM 53.6 °F - 50.0 °F 88% 30.01 in 6.2 mi South 8.1 mph - N/A   Partly Cloudy
7:50 PM 50.0 °F - 46.4 °F 87% 30.04 in 6.2 mi South 4.6 mph - N/A   Partly Cloudy
8:00 PM 50 °F - 47 °F 86% 30.05 in 9 mi South 4.6 mph - -   Scattered Clouds
8:20 PM 50.0 °F - 46.4 °F 87% 30.04 in 6.2 mi South 5.8 mph - N/A   Partly Cloudy
8:50 PM 50.0 °F - 46.4 °F 87% 30.04 in 6.2 mi South 8.1 mph - N/A   Partly Cloudy
9:20 PM 50.0 °F - 46.4 °F 87% 30.04 in 6.2 mi South 8.1 mph - N/A   Partly Cloudy
9:50 PM 50.0 °F - 44.6 °F 82% 30.04 in 6.2 mi South 6.9 mph - N/A   Partly Cloudy
10:20 PM 50.0 °F - 44.6 °F 82% 30.04 in 6.2 mi South 8.1 mph - N/A   Partly Cloudy
10:50 PM 48.2 °F - 44.6 °F 87% 30.04 in 6.2 mi South 9.2 mph - N/A   Partly Cloudy
11:20 PM 48.2 °F - 44.6 °F 87% 30.04 in 6.2 mi South 9.2 mph - N/A   Partly Cloudy
11:50 PM 48.2 °F - 44.6 °F 87% 30.04 in 6.2 mi SSW 6.9 mph - N/A   Partly Cloudy